Voltar ao catálogo

INTELSAT 19

AtivoComunicaçõesGEO
NORAD 38356·PAYLOAD· XX

Lançado Jun 1, 2012 de Sea Launch Platform

Loading…

TLE

AtualizadoSource: CelesTrak SupGP

Época: Sep 14, 2026, 00:00 UTC

1 38356C 12030A   26257.00000000  .00000018  00000+0  00000+0 0  2577
2 38356   0.0415 351.5862 0003064 184.9901 342.4105  1.00272036    13

Acompanhe INTELSAT 19 em tempo real com AllMySat

Download on the App Store